Regional Weather Roundup
Issued by NWS

Home | Current Version | Previous Version | Text Only | Print | Product List | Glossary Off
Versions: 1 2 3 4 5 6 7 8 9 10 11 12 13 14 15 16 17 18 19 20 21 22 23 24 25 26 27 28 29 30 31 32 33 34 35 36 37 38 39 40 41 42 43 44 45 46 47 48 49 50

000
ASUS43 KFSD 280810
RWRSD

WEATHER ROUNDUP FOR SOUTH DAKOTA
NATIONAL WEATHER SERVICE SIOUX FALLS SD
300 AM CDT TUE JUL 28 2015

NOTE: "FAIR" INDICATES FEW OR NO CLOUDS BELOW 12,000 FEET WITH NO
SIGNIFICANT WEATHER AND/OR OBSTRUCTIONS TO VISIBILITY.


SDZ001>005-009-010-012>017-280900-
NORTHWEST AND NORTH CENTRAL SOUTH DAKOTA

CITY           SKY/WX    TMP DP  RH WIND       PRES   REMARKS
BUFFALO          N/A     57  50  77 W22       29.77S
FAITH            N/A     60  53  77 W22       29.79R
MOBRIDGE       CLOUDY    71  65  81 W12       29.67R
$$

SDZ012>016-024>037-041>051-057-063-072>074-280900-
SOUTHWEST AND SOUTH CENTRAL SOUTH DAKOTA

CITY           SKY/WX    TMP DP  RH WIND       PRES   REMARKS
RAPID CTY ARPT CLEAR     59  51  75 NW15      29.87R
PIERRE         CLOUDY    67  66  97 W7        29.70R
CUSTER         CLEAR     51  42  71 CALM      29.99R
ELLSWORTH AFB  CLEAR     60  51  71 N12       29.87R
PHILIP         MOCLDY    63  57  81 NW18      29.78R
PINE RIDGE     MOCLDY    64  56  75 N5        29.91R
SPEARFISH      FAIR      55  46  71 W12       29.95R
WINNER         FAIR      67  64  90 S8G20     29.70F
$$

SDZ004>011-016>023-039-040-280900-
NORTHEAST SOUTH DAKOTA

CITY           SKY/WX    TMP DP  RH WIND       PRES   REMARKS
ABERDEEN       RAIN      69  66  90 E14G21    29.66F
WATERTOWN      TSTM      67  66  97 NW10      29.76R FOG
BROOKINGS      CLOUDY   N/A N/A N/A S20G36    29.70F THUNDER
SISSETON         N/A     70  67  90 W10G23    29.67S
$$

SDZ017-020-022-023-036>040-048>070-280900-
SOUTHEAST SOUTH DAKOTA

CITY           SKY/WX    TMP DP  RH WIND       PRES   REMARKS
SIOUX FALLS    HVY RAIN  74  71  91 S25G33    29.74R FOG
HURON          LGT RAIN  68  66  93 E14       29.66F
CHAMBERLAIN    CLOUDY    66  66  99 SE6       29.71R
MITCHELL       LGT RAIN  69  67  93 CALM      29.74F
YANKTON        PTCLDY    75  70  83 SE8       29.71S
$$

ABBREVIATIONS USED IN REMARKS
   TC - TEMPERATURE IN CELSIUS
  WCI - WIND CHILL INDEX
   HX - HEAT INDEX
  VSB - VISIBILITY



USA.gov is the U.S. government's official web portal to all federal, state and local government web resources and services.